Algona, IA

1:27 PM CST on February 26, 2017 (GMT -0600)
Algona Municipal

Weather History for KAXA - March, 2012

Change the Weather History Date:

Monday, March 19, 2012

  Actual Average Record
Temperature  
Mean Temperature 68 °F -  
Max Temperature 78 °F 38 °F 78 °F (2012)
Min Temperature 57 °F 24 °F 10 °F (2013)
Cooling Degree Days 2    
Growing Degree Days 18 (Base 50)    
Moisture  
Dew Point 58 °F    
Average Humidity 77    
Maximum Humidity 100    
Minimum Humidity 44    
Precipitation  
Precipitation 0.76 in - - ()
Sea Level Pressure  
Sea Level Pressure 29.69 in    
Wind  
Wind Speed 19 mph (SSE)    
Max Wind Speed 30 mph    
Max Gust Speed 38 mph    
Visibility 10 miles    
Events Rain    
Averages and records for this station are not official NWS values.
T = Trace of Precipitation, MM = Missing Value Source: NWS Daily Summary

Daily Weather History Graph

Daily Weather History Graph

Search for Another Location

Airport or City:

Trip Planner

Search our weather history database for the weather conditions in past years. The results will help you decide how hot, cold, wet, or windy it might be!

Date:

Astronomy

Mar. 19, 2012 Rise Set
Actual Time 7:21 AM CDT 7:28 PM CDT
Civil Twilight 6:52 AM CDT 7:57 PM CDT
Nautical Twilight 6:19 AM CDT 8:30 PM CDT
Astronomical Twilight 5:45 AM CDT 9:04 PM CDT
Moon 5:37 AM CDT (3/19) 4:54 PM CDT (3/19)
Length of Visible Light 13h 04m
Length of Day
12h 07m
Waning Crescent, 8% of the Moon is Illuminated
Mar 19
Waning Crescent
Mar 22
New
Mar 30
First Quarter
Apr 6
Full
Apr 13
Last Quarter

Hourly Weather History & Observations

Time (CDT) Temp. Dew Point Humidity Pressure Visibility Wind Dir Wind Speed Gust Speed Precip Events Conditions
12:15 AM 64.4 °F 59.0 °F 83% 29.75 in 10.0 mi South 18.4 mph 24.2 mph N/A   Clear
12:35 AM 66.2 °F 59.0 °F 78% 29.75 in 10.0 mi South 18.4 mph 25.3 mph N/A   Clear
12:55 AM 66.2 °F 57.2 °F 73% 29.75 in 10.0 mi South 19.6 mph 25.3 mph N/A   Clear
1:15 AM 66.2 °F 57.2 °F 73% 29.74 in 10.0 mi South 20.7 mph 27.6 mph N/A   Clear
1:55 AM 64.4 °F 57.2 °F 77% 29.74 in 10.0 mi South 18.4 mph 23.0 mph N/A   Clear
2:15 AM 64.4 °F 57.2 °F 77% 29.74 in 10.0 mi South 19.6 mph - N/A   Clear
2:35 AM 64.4 °F 57.2 °F 77% 29.74 in 10.0 mi South 17.3 mph - N/A   Clear
2:55 AM 64.4 °F 57.2 °F 77% 29.74 in 10.0 mi South 16.1 mph - N/A   Clear
3:15 AM 64.4 °F 57.2 °F 77% 29.74 in 10.0 mi SSE 17.3 mph 23.0 mph N/A   Clear
4:15 AM 62.6 °F 57.2 °F 82% 29.72 in 10.0 mi SSE 16.1 mph - N/A   Clear
4:35 AM 62.6 °F 57.2 °F 82% 29.71 in 10.0 mi SSE 16.1 mph 20.7 mph N/A   Clear
4:55 AM 62.6 °F 57.2 °F 82% 29.70 in 10.0 mi SSE 16.1 mph - N/A   Clear
5:15 AM 62.6 °F 57.2 °F 82% 29.71 in 10.0 mi SSE 17.3 mph - N/A   Clear
5:35 AM 62.6 °F 57.2 °F 82% 29.71 in 10.0 mi SSE 16.1 mph 23.0 mph N/A   Clear
5:55 AM 62.6 °F 57.2 °F 82% 29.71 in 10.0 mi SSE 13.8 mph - N/A   Mostly Cloudy
6:15 AM 62.6 °F 57.2 °F 82% 29.72 in 10.0 mi SSE 16.1 mph 21.9 mph N/A   Overcast
6:35 AM 62.6 °F 57.2 °F 82% 29.71 in 10.0 mi SSE 16.1 mph - N/A   Overcast
7:15 AM 62.6 °F 57.2 °F 82% 29.72 in 10.0 mi SSE 16.1 mph - N/A   Clear
7:35 AM 62.6 °F 57.2 °F 82% 29.72 in 10.0 mi SSE 16.1 mph - N/A   Mostly Cloudy
7:55 AM 64.4 °F 57.2 °F 77% 29.72 in 10.0 mi SSE 16.1 mph - N/A   Overcast
8:15 AM 64.4 °F 57.2 °F 77% 29.72 in 10.0 mi SSE 16.1 mph - N/A   Overcast
8:35 AM 64.4 °F 57.2 °F 77% 29.72 in 10.0 mi SSE 17.3 mph 23.0 mph N/A   Mostly Cloudy
8:55 AM 64.4 °F 57.2 °F 77% 29.73 in 10.0 mi SSE 18.4 mph 23.0 mph N/A   Scattered Clouds
9:15 AM 64.4 °F 57.2 °F 77% 29.72 in 10.0 mi SE 17.3 mph 25.3 mph N/A   Mostly Cloudy
9:55 AM 71.6 °F 57.2 °F 60% 29.73 in 10.0 mi SSE 24.2 mph 29.9 mph N/A   Scattered Clouds
10:15 AM 71.6 °F 57.2 °F 60% 29.73 in 10.0 mi South 29.9 mph 38.0 mph N/A   Scattered Clouds
10:35 AM 71.6 °F 57.2 °F 60% 29.73 in 10.0 mi South 27.6 mph 34.5 mph N/A   Scattered Clouds
10:55 AM 73.4 °F 57.2 °F 57% 29.72 in 10.0 mi South 26.5 mph 33.4 mph N/A   Mostly Cloudy
11:15 AM 73.4 °F 57.2 °F 57% 29.72 in 10.0 mi South 23.0 mph 32.2 mph N/A   Mostly Cloudy
11:35 AM 71.6 °F 57.2 °F 60% 29.72 in 10.0 mi South 27.6 mph 32.2 mph N/A   Mostly Cloudy
11:55 AM 73.4 °F 57.2 °F 57% 29.71 in 10.0 mi South 25.3 mph 31.1 mph N/A   Mostly Cloudy
12:15 PM 75.2 °F 57.2 °F 53% 29.69 in 10.0 mi South 26.5 mph 33.4 mph N/A   Mostly Cloudy
12:35 PM 75.2 °F 57.2 °F 53% 29.69 in 10.0 mi SSE 26.5 mph 33.4 mph N/A   Mostly Cloudy
12:55 PM 73.4 °F 57.2 °F 57% 29.69 in 10.0 mi South 28.8 mph 34.5 mph N/A   Overcast
1:15 PM 75.2 °F 57.2 °F 53% 29.68 in 10.0 mi South 28.8 mph 33.4 mph N/A   Scattered Clouds
1:35 PM 77.0 °F 57.2 °F 50% 29.67 in 10.0 mi South 26.5 mph 33.4 mph N/A   Scattered Clouds
1:55 PM 77.0 °F 55.4 °F 47% 29.66 in 10.0 mi South 23.0 mph 29.9 mph N/A   Mostly Cloudy
2:15 PM 78.8 °F 55.4 °F 44% 29.65 in 10.0 mi South 24.2 mph 29.9 mph N/A   Mostly Cloudy
2:35 PM 78.8 °F 55.4 °F 44% 29.64 in 10.0 mi SSE 21.9 mph 29.9 mph N/A   Scattered Clouds
2:55 PM 78.8 °F 55.4 °F 44% 29.62 in 10.0 mi South 23.0 mph 28.8 mph N/A   Scattered Clouds
3:35 PM 77.0 °F 55.4 °F 47% 29.59 in 10.0 mi South 19.6 mph 26.5 mph N/A   Scattered Clouds
3:55 PM 77.0 °F 55.4 °F 47% 29.58 in 10.0 mi South 21.9 mph 29.9 mph N/A   Mostly Cloudy
4:15 PM 77.0 °F 53.6 °F 44% 29.58 in 10.0 mi SSE 20.7 mph 31.1 mph N/A   Mostly Cloudy
4:35 PM 75.2 °F 55.4 °F 50% 29.60 in 10.0 mi South 28.8 mph 33.4 mph N/A Rain Light Rain
4:55 PM 64.4 °F 62.6 °F 94% 29.64 in 1.8 mi South 24.2 mph 29.9 mph 0.19 in Rain Heavy Rain
5:15 PM 62.6 °F 62.6 °F 100% - 5.0 mi SSW 19.6 mph 26.5 mph 0.19 in Rain Heavy Rain
5:35 PM 62.6 °F 62.6 °F 100% 29.67 in 7.0 mi South 13.8 mph - 0.26 in Rain Heavy Rain
5:55 PM 60.8 °F 60.8 °F 100% 29.66 in 10.0 mi SW 15.0 mph - 0.36 in Rain Heavy Rain
6:15 PM 60.8 °F 60.8 °F 100% 29.69 in 7.0 mi SSW 17.3 mph - 0.09 in Rain Heavy Rain
6:35 PM 60.8 °F 59.0 °F 94% 29.67 in 10.0 mi SSW 9.2 mph 17.3 mph 0.16 in Rain Rain
6:55 PM 60.8 °F 60.8 °F 100% 29.67 in 10.0 mi South 8.1 mph - 0.16 in Rain Rain
7:15 PM 60.8 °F 59.0 °F 94% 29.66 in 10.0 mi SSE 6.9 mph - 0.04 in Rain Rain
7:35 PM 59.0 °F 59.0 °F 100% 29.67 in 10.0 mi South 9.2 mph - 0.05 in Rain Rain
7:55 PM 59.0 °F 59.0 °F 100% 29.66 in 10.0 mi South 8.1 mph - 0.05 in   Mostly Cloudy
8:15 PM 59.0 °F 59.0 °F 100% 29.66 in 10.0 mi SE 10.4 mph - N/A   Overcast
8:35 PM 59.0 °F 59.0 °F 100% 29.65 in 10.0 mi SE 9.2 mph - N/A   Mostly Cloudy
8:55 PM 57.2 °F 57.2 °F 100% 29.64 in 10.0 mi SE 11.5 mph - N/A   Scattered Clouds
9:15 PM 57.2 °F 57.2 °F 100% 29.63 in 10.0 mi SE 13.8 mph 20.7 mph N/A   Clear
9:35 PM 57.2 °F 57.2 °F 100% 29.62 in 10.0 mi SE 16.1 mph - N/A   Clear
9:55 PM 59.0 °F 57.2 °F 94% 29.62 in 10.0 mi SE 18.4 mph 25.3 mph N/A   Clear
10:15 PM 59.0 °F 57.2 °F 94% 29.65 in 10.0 mi SSE 18.4 mph 25.3 mph N/A   Clear
10:35 PM 59.0 °F 57.2 °F 94% 29.66 in 10.0 mi SSE 17.3 mph - N/A   Clear
10:55 PM 57.2 °F 57.2 °F 100% 29.70 in 10.0 mi SW 11.5 mph - N/A   Scattered Clouds
11:15 PM 57.2 °F 57.2 °F 100% 29.70 in 10.0 mi SW 12.7 mph 20.7 mph N/A   Scattered Clouds
11:35 PM 57.2 °F 55.4 °F 94% 29.70 in 10.0 mi SSW 9.2 mph - N/A   Scattered Clouds